IRNSS-1B

Last updated on Oct. 27, 2020, 5:52 a.m. UTC

1 39635U 14017A   20300.49778281  .00000072  00000-0  00000-0 0  9999
2 39635  29.1415 275.0426 0019016 191.3911 163.1031  1.00273123 24132
UTC
Height (km)
Latitude
Longitude
Inclination
Orbital Period
UTC large
Height (km)
Speed (km/s)
/
Latitude / Longitude
Inclination (degrees)
Orbital Period (minutes)
Azimuth
Elevation
Range (km)
Doppler Factor
iOS Compass Heading
iOS Angle

Next 30 passes for location: Hong Kong

Rise time Rise Azimuth (degrees) Set time Set Azimuth (degrees) Duration Max altitude (degrees)

No matching passes for this satellites